Wind_Speed
19 20 15 15 19 21 25 31 27 24 21 18 19 20 21 20 20 23 28 37 46 50 45 44 41 41 35 30 16 16 19 20 22
17 20 22 18 17 23 33 36 26 22 24 20 24 23 21 19 17 17 22 27 33 38 46 42 42 42 41 29 20 18 16 21 22
28 26 26 24 26 31 26 32 28 25 28 18 22 23 21 20 16 14 14 20 26 32 38 44 43 41 38 32 23 23 27 20 19
25 26 17 16 25 24 33 36 26 30 24 15 18 24 22 20 16 14 13 16 21 26 34 43 44 41 36 34 26 23 18 20 16
20 18 17 15 19 27 37 25 24 31 17 12 14 22 27 20 16 14 14 17 19 22 29 35 36 30 31 28 22 18 20 17 18
22 21 18 19 21 29 24 21 25 22 15 12 14 19 28 25 18 14 16 18 20 24 28 34 34 27 27 24 18 21 22 16 16
34 23 28 31 28 30 12 19 26 22 18 15 14 18 26 25 19 19 21 20 20 26 34 38 36 33 25 19 24 23 18 17 15
42 33 34 34 25 18 16 21 21 13 12 12 11 14 22 26 23 24 23 24 25 27 34 40 40 34 30 26 24 22 21 21 20
45 35 35 33 25 21 17 23 19 12 12 15 11 14 20 25 31 28 25 27 27 28 30 39 37 41 35 34 26 21 21 23 22
56 39 37 35 25 28 26 19 23 9 10 14 12 12 18 24 26 30 28 29 29 30 33 38 37 32 30 27 31 26 25 24 27
50 46 36 34 32 29 29 19 14 5 7 8 14 18 20 20 23 27 28 32 28 32 34 39 35 24 28 31 32 25 31 33 22
42 43 46 38 35 33 31 20 17 8 8 10 15 19 18 20 24 30 30 33 35 32 35 33 27 27 23 19 30 26 23 19 15
41 40 42 40 36 34 30 19 21 12 12 10 16 20 16 23 27 32 33 39 38 35 33 30 26 26 25 25 23 21 23 15 19
44 41 43 44 38 32 27 19 20 13 12 12 15 17 19 25 27 30 32 42 39 38 37 36 21 21 19 18 18 19 17 18 22
44 48 46 45 42 39 29 23 22 12 13 18 12 12 20 25 26 28 28 43 43 38 37 42 26 18 16 16 14 17 20 21 21
43 48 50 48 48 40 33 27 30 13 4 26 21 19 26 31 29 28 24 32 34 32 32 34 29 24 20 20 21 17 15 16 17
44 51 53 53 52 43 37 34 33 30 18 12 28 28 25 29 37 33 32 29 27 31 28 26 28 26 24 26 25 16 16 19 21
44 52 55 57 58 53 46 44 40 34 30 12 12 30 32 31 32 34 36 33 28 29 29 26 25 25 25 21 18 18 21 23 26
45 55 58 61 61 55 55 52 49 44 38 25 18 14 31 37 35 36 37 39 36 35 30 26 25 28 27 25 26 22 25 28 29
53 62 60 60 59 61 61 57 54 52 42 31 28 15 13 18 37 38 39 38 40 39 38 36 35 35 33 33 33 33 32 32 31
Wind_Direction
240 241 264 303 310 300 312 321 315 325 325 300 258 262 268 270 263 251 234 227 226 228 227 229 229 232 236 238 226 248 260 273 285
250 247 260 271 292 300 309 314 308 320 323 293 258 245 253 259 252 244 241 232 223 223 223 222 223 228 230 225 218 240 250 267 272
247 253 261 270 281 286 303 314 310 312 310 292 249 227 241 248 233 229 223 224 219 219 219 217 215 218 221 213 216 238 251 258 258
244 251 270 290 280 295 308 307 309 318 310 284 239 221 230 236 222 210 200 200 205 206 211 212 212 211 211 216 215 227 235 242 261
235 242 249 264 302 308 323 321 326 319 315 295 238 224 223 223 216 203 199 194 187 187 195 196 202 200 194 192 197 207 224 249 251
227 237 251 278 306 316 328 347 342 328 326 284 248 238 231 221 205 203 200 194 195 190 179 178 186 176 183 181 194 208 222 231 268
233 232 244 262 288 311 335 358 354 329 318 298 255 239 229 220 209 206 203 189 185 178 176 177 180 180 180 192 201 208 228 243 277
237 229 242 254 276 293 331 344 353 330 321 309 285 255 226 214 217 213 201 192 184 181 180 184 174 181 189 190 190 208 225 259 281
242 238 238 245 265 266 316 331 335 341 322 322 284 254 234 223 216 213 204 193 182 181 185 189 186 195 197 195 180 205 248 266 266
242 238 237 241 253 254 275 311 314 344 316 311 305 267 235 227 217 211 202 190 190 187 188 187 179 175 181 195 196 222 233 258 272
241 238 233 239 248 247 261 297 305 309 283 291 278 273 236 218 201 194 187 185 185 178 176 174 172 184 192 202 204 238 242 251 264
241 236 234 238 240 246 254 283 291 330 241 249 275 285 245 199 187 184 182 179 175 168 178 177 178 179 182 201 208 216 241 260 270
239 235 232 229 235 243 251 263 284 322 217 221 254 277 233 188 184 183 187 178 174 175 168 173 181 190 203 217 227 240 258 274 288
235 232 229 224 231 233 241 250 267 329 204 192 234 267 204 182 184 193 187 178 182 184 183 182 197 202 230 233 233 240 266 276 288
235 232 223 220 225 227 229 239 251 278 216 194 219 238 198 182 175 172 174 188 192 197 199 202 214 221 238 235 236 249 264 279 290
233 231 221 217 221 222 225 222 240 253 244 211 205 211 208 183 180 178 174 186 194 197 208 216 222 229 232 237 248 257 267 285 296
231 224 220 216 219 225 227 216 231 244 253 205 217 210 215 216 201 200 198 195 200 209 212 214 219 227 230 248 254 260 269 287 295
227 221 221 217 220 225 226 222 226 229 234 239 215 220 216 213 218 217 218 216 214 213 222 223 224 230 233 230 242 250 275 282 289
225 212 219 222 222 223 225 224 227 235 234 240 229 216 227 227 220 219 222 225 222 216 224 229 233 233 246 251 261 268 269 277 283
222 213 214 223 225 225 225 225 228 232 231 225 234 228 245 242 235 232 224 226 229 232 235 244 246 249 252 257 263 270 277 283 279
Height
10968 10969 10969 10965 10965 10965 10963 10959 10958 10955 10953 10952 10953 10955 10956 10956 10956 10956 10958 10963 10970 10980 10989 10996 11003 11009 11014 11021 11024 11026 11028 11029 11031
10964 10965 10964 10963 10963 10962 10958 10955 10952 10950 10948 10945 10946 10948 10952 10953 10952 10951 10951 10955 10961 10969 10978 10988 10995 11002 11008 11015 11019 11022 11024 11027 11028
10959 10960 10961 10961 10960 10958 10956 10951 10947 10945 10942 10938 10939 10942 10947 10949 10949 10948 10948 10950 10954 10961 10970 10979 10988 10995 11002 11009 11014 11019 11021 11024 11025
10953 10956 10958 10957 10955 10954 10951 10946 10941 10938 10934 10930 10932 10936 10942 10946 10947 10947 10947 10949 10953 10958 10964 10973 10983 10990 10998 11005 11011 11015 11018 11021 11022
10948 10951 10952 10951 10951 10947 10944 10939 10936 10932 10927 10925 10926 10931 10938 10944 10946 10947 10948 10950 10953 10956 10960 10969 10979 10987 10994 11001 11006 11011 11015 11017 11019
10943 10946 10947 10946 10946 10944 10941 10937 10931 10926 10922 10922 10923 10926 10933 10939 10943 10946 10949 10951 10953 10956 10960 10968 10975 10984 10991 10997 11002 11007 11011 11014 11015
10933 10938 10942 10942 10943 10941 10938 10932 10927 10923 10919 10918 10919 10923 10928 10935 10940 10945 10949 10951 10954 10955 10959 10967 10975 10982 10989 10994 10999 11004 11007 11010 11010
10924 10933 10936 10939 10940 10938 10935 10931 10925 10921 10917 10917 10917 10919 10923 10929 10936 10943 10947 10950 10953 10956 10961 10966 10972 10980 10987 10991 10996 11000 11004 11006 11007
10913 10925 10929 10933 10935 10933 10931 10929 10924 10919 10918 10918 10917 10918 10921 10925 10931 10939 10944 10949 10952 10957 10961 10966 10972 10978 10984 10988 10992 10998 11001 11002 11003
10901 10916 10921 10926 10929 10927 10927 10926 10924 10917 10917 10918 10919 10919 10920 10923 10927 10934 10940 10946 10951 10955 10959 10963 10970 10975 10980 10985 10989 10993 10998 10998 10998
10892 10903 10912 10918 10922 10923 10923 10923 10922 10915 10915 10919 10921 10921 10920 10921 10925 10931 10937 10943 10948 10953 10959 10965 10970 10975 10980 10983 10985 10990 10994 10993 10994
10882 10891 10900 10909 10914 10917 10918 10919 10918 10913 10912 10916 10920 10921 10920 10919 10924 10929 10935 10941 10947 10951 10957 10962 10968 10972 10976 10980 10985 10985 10987 10988 10989
10874 10880 10892 10901 10907 10910 10913 10913 10914 10910 10908 10913 10919 10920 10918 10919 10924 10929 10934 10939 10946 10951 10956 10961 10965 10970 10974 10977 10978 10980 10985 10984 10984
10866 10870 10881 10892 10898 10903 10907 10908 10909 10906 10905 10910 10917 10920 10920 10920 10924 10929 10933 10939 10945 10950 10954 10958 10962 10967 10969 10971 10973 10978 10978 10979 10979
10856 10861 10869 10883 10890 10895 10900 10903 10905 10905 10904 10908 10914 10918 10921 10922 10925 10929 10933 10938 10943 10947 10951 10954 10958 10961 10964 10967 10969 10971 10974 10975 10974
10844 10850 10859 10872 10879 10886 10893 10898 10900 10902 10901 10903 10910 10915 10922 10923 10925 10928 10933 10936 10938 10942 10946 10951 10954 10958 10961 10964 10966 10967 10968 10968 10968
10834 10840 10848 10859 10868 10877 10885 10890 10893 10896 10900 10900 10904 10911 10916 10921 10923 10926 10930 10933 10936 10940 10942 10946 10949 10952 10954 10957 10959 10960 10961 10961 10961
10824 10831 10838 10846 10855 10865 10873 10880 10884 10889 10894 10897 10900 10904 10908 10913 10918 10921 10925 10928 10930 10933 10937 10940 10942 10945 10947 10949 10951 10952 10953 10953 10953
10814 10822 10828 10834 10844 10853 10861 10868 10875 10882 10887 10893 10895 10896 10902 10906 10911 10915 10919 10923 10927 10929 10932 10933 10935 10937 10939 10941 10942 10944 10945 10945 10944
10800 10811 10818 10823 10831 10840 10847 10856 10865 10872 10879 10886 10890 10894 10898 10901 10905 10909 10912 10916 10920 10924 10926 10927 10928 10929 10930 10931 10934 10935 10937 10936 10934